Вернуться в каталог

ONEWEB-0590

АктивенСвязьPO
NORAD 54656·PAYLOAD·🇬🇧 United Kingdom

Запущен Dec 8, 2022 с Cape Canaveral Space Force Station

Loading…

Ближайшие Пролёты (ближайшие 24 часа)

TLE

СвежийSource: CelesTrak SupGP

Эпоха: Sep 14, 2026, 20:26 UTC

1 54656C 22166Q   26257.85154352  .00002596  00000+0  62941-2 0  2570
2 54656  87.9279 226.1278 0001797  92.8924 291.4017 13.21820941    12

Отслеживайте ONEWEB-0590 в реальном времени с AllMySat

Download on the App Store